Location: Ash Swamp
(41.5170°N, 74.6157°W)
Time: 17:16:24
(UTC+00:00)

Cosmos 1743 - Pass Details

Date: 14 July 2020
Orbit: 511 x 526 km, 82.6° (Epoch: 04 August)

Event Time Altitude Azimuth Distance (km) Brightness Sun altitude
Exits shadow 07:47:56 24° 174° (S) 1,084 3.9 -16.4°
Maximum altitude 07:50:04 69° 96° (E) 554 2.9 -16.2°
Drops below altitude 10° 07:53:53 10° 13° (NNE) 1,751 6.4 -15.7°
Sets 07:56:02 0° 11° (N) 2,646 7.4 -15.4°
